• Processing (Info)

  • MPEC 2022-Y174 : 2022 YD5

    The following Minor Planet Electronic Circular may be linked-to from your own Web pages, but must not otherwise be redistributed electronically.

    A form allowing access to any MPEC is at the bottom of this page.


    Read MPEC 2022-Y173 Read MPEC 2022-Y175


    M.P.E.C. 2022-Y174                            Issued 2022 December 26, 12:53 UT
    
         The Minor Planet Electronic Circulars contain information on unusual
             minor planets, routine data on comets and natural satellites,
             and occasional editorial announcements.  They are published
        on behalf of Division F of the International Astronomical Union by the
              Minor Planet Center, Smithsonian Astrophysical Observatory,
                              Cambridge, MA 02138, U.S.A.
    			  
                 Prepared using the Tamkin Foundation Computer Network
    
                                  MPC@CFA.HARVARD.EDU
                URL https://www.minorplanetcenter.net/    ISSN 1523-6714
    
                                    2022 YD5                                 
    
    
    Observations:
         K22Y05D*1C2022 12 23.25918804 35 19.093+27 05 24.83         20.02GVEY174G96
         K22Y05D 1C2022 12 23.26482004 35 18.186+27 05 30.95         20.85GVEY174G96
         K22Y05D 1C2022 12 23.27044804 35 17.290+27 05 36.74         20.55GVEY174G96
         K22Y05D KC2022 12 23.34840204 35 04.592+27 06 56.63         20.79GVEY174I52
         K22Y05D KC2022 12 23.35140704 35 04.171+27 06 59.29         20.69GVEY174I52
         K22Y05D KC2022 12 23.35439304 35 03.739+27 07 02.96               VEY174I52
         K22Y05D KC2022 12 24.14087104 33 17.780+27 21 58.50         20.52GVEY174I52
         K22Y05D KC2022 12 24.14423604 33 17.208+27 22 02.71         20.68GVEY174I52
         K22Y05D KC2022 12 24.14760404 33 16.628+27 22 06.89         20.81GVEY174I52
         K22Y05D mC2022 12 25.11625304 30 49.440+27 42 02.60               VEY174I52
         K22Y05D mC2022 12 25.11754904 30 49.260+27 42 03.90         21.13GVEY174I52
         K22Y05D mC2022 12 25.11884704 30 49.040+27 42 06.00         21.27GVEY174I52
         K22Y05D mC2022 12 26.13451704 27 58.964+28 05 17.63         20.69GVEY174I52
         K22Y05D mC2022 12 26.13664704 27 58.522+28 05 21.01         21.20GVEY174I52
         K22Y05D mC2022 12 26.14314004 27 57.233+28 05 31.42         21.64GVEY174I52
         K22Y05D mC2022 12 26.14527004 27 56.761+28 05 34.37         20.53GVEY174I52
    
    Observer details:
    G96 Mt. Lemmon Survey.  Observer J. K. Hogan.  Measurers E. J. Christensen, D.
        Fay, J. B. Fazekas, D. C. Fuls, A. R. Gibbs, A. D. Grauer, H. Groeller, J.
        K. Hogan, R. A. Kowalski, S. M. Larson, G. J. Leonard, D. Rankin, R. L.
        Seaman, A. Serrano, F. C. Shelly, K. W. Wierzchos.  1.5-m reflector + 10K
        CCD.
    I52 Steward Observatory, Mt. Lemmon Station.  Observers R. A. Kowalski, K. W.
        Wierzchos.  Measurers E. J. Christensen, D. Fay, J. B. Fazekas, D. C.
        Fuls, A. R. Gibbs, A. D. Grauer, H. Groeller, J. K. Hogan, R. A. Kowalski,
        S. M. Larson, G. J. Leonard, D. Rankin, R. L. Seaman, A. Serrano, F. C.
        Shelly, K. W. Wierzchos.  1.0-m prime focus + CCD.
    
    Orbital elements:
    2022 YD5                                                 Earth MOID = 0.0136 AU
    Epoch 2023 Feb. 25.0 TT = JDT 2460000.5                 Veres                   
    M   4.79505              (2000.0)            P               Q                  
    n   0.31056459     Peri.   92.29051     -0.86550086     -0.50062446             
    a   2.1595740      Node    57.66861     +0.45129169     -0.79391464             
    e   0.5863105      Incl.    1.14161     +0.21735703     -0.34507201             
    P   3.17           H   24.50          G   0.15           U   9                  
    Residuals in seconds of arc
    221223 G96  0.1-  0.0     221224 I52  0.0   0.3+    221226 I52  0.2+  0.0
    221223 G96  0.0   0.1+    221224 I52  0.0   0.1+    221226 I52  0.0   0.0
    221223 G96  0.3+  0.1-    221224 I52  0.1-  0.0     221226 I52  0.4+  0.4+
    221223 I52  1.0-  0.1-    221225 I52  0.5-  0.2-    221226 I52  0.2-  0.0
    221223 I52  0.2-  0.4-    221225 I52  0.2+  0.8-
    221223 I52  0.3+  0.3+    221225 I52  0.4+  0.5-
    
    Ephemeris:
    2022 YD5                 a,e,i = 2.16, 0.59, 1                   q = 0.8934
    Date    TT    R. A. (2000) Decl.     Delta      r    Elong.  Phase     V
    2022 11 26    05 02 55.5 +23 26 05   0.3441  1.3241   166.4    10.1    23.4
    ...
    2022 12 11    04 53 58.1 +24 43 20   0.2158  1.2001   175.8     3.4    21.9
    ...
    2022 12 19    04 43 35.2 +26 00 57   0.1573  1.1371   165.7    12.4    21.5
    ...
    2022 12 25    04 31 04.7 +27 39 46   0.1169  1.0920   156.8    20.8    21.1
    2022 12 26    04 28 19.6 +28 02 16   0.1104  1.0848   155.2    22.4    21.0
    2022 12 27    04 25 17.7 +28 27 14   0.1040  1.0776   153.5    24.0    20.9
    ...
    2023 01 02    03 56 37.8 +32 20 48   0.06687 1.0363   141.2    36.5    20.2
    ...
    2023 01 10    00 36 26.4 +44 41 34   0.02524 0.9870    97.6    81.0    19.3
    ...
    2023 01 25    17 51 10.1 -11 43 51   0.08501 0.9191    38.2   138.5    25.6
    
    M. P. C. Staff               (C) Copyright 2022 MPC           M.P.E.C. 2022-Y174
    


    Read MPEC 2022-Y173 Read MPEC 2022-Y175


    MPEC number:

    Enter an MPEC number in one of the following forms:

    • 1997-B01 (the full form)
    • J97B01 (the packed version of the full form)
    • B01 (the abbreviated form)